Volver al catálogo

SHIYAN 27A

ActivoCienciaSSO
NORAD 63599·PAYLOAD·🇨🇳 China

Lanzado Apr 18, 2025 desde Taiyuan Satellite Launch Center

Loading…

Próximos Pases (próximas 24 horas)

TLE

ActualizadoSource: Space-Track

Época: Sep 14, 2026, 14:10 UTC

1 63599U 25078A   26257.59040368 -.00000007  00000-0  52104-4 0  9995
2 63599  99.6941 263.4866 0000973 106.0783 254.0462 13.57250188 69661

Sigue SHIYAN 27A en tiempo real con AllMySat

Download on the App Store